Overview Statistics Trail Chart Weather Telemetry Raw packets
 

This is the latest recevied weather packets stored in our database for station/object F4ISX-10. If no packets are shown the sender has not sent any weather packets the latest 10 day(s).

<< 32 33 34 35 36 37 38 >>
Time Temp. Humidity Pressure Rain* Wind** Luminosity Snow
1777026759 14.44° C 46% 1024.2 hPa - - - -
1777025858 14.44° C 47% 1024.2 hPa - - - -
1777024958 14.44° C 47% 1024.2 hPa - - - -
1777024058 13.89° C 47% 1024.4 hPa - - - -
1777023158 13.89° C 47% 1024.6 hPa - - - -
1777022257 13.33° C 48% 1024.6 hPa - - - -
1777021357 13.33° C 48% 1024.7 hPa - - - -
1777020457 13.33° C 48% 1024.7 hPa - - - -
1777019557 12.78° C 48% 1024.7 hPa - - - -
1777018657 12.78° C 49% 1024.7 hPa - - - -
1777017756 12.78° C 49% 1024.7 hPa - - - -
1777016856 12.22° C 50% 1024.8 hPa - - - -
1777015956 12.22° C 50% 1024.7 hPa - - - -
1777015056 12.22° C 50% 1024.8 hPa - - - -
1777014156 11.67° C 51% 1024.8 hPa - - - -
1777013255 11.67° C 51% 1024.9 hPa - - - -
1777012355 11.67° C 51% 1024.9 hPa - - - -
1777011455 11.67° C 50% 1025 hPa - - - -
1777010555 11.67° C 50% 1025 hPa - - - -
1777009655 11.67° C 50% 1025 hPa - - - -
1777008754 11.67° C 50% 1024.9 hPa - - - -
1777007854 11.67° C 49% 1024.7 hPa - - - -
1777006953 11.67° C 49% 1024.7 hPa - - - -
1777006053 11.67° C 49% 1024.6 hPa - - - -
1777005153 12.22° C 48% 1024.7 hPa - - - -

* Rain since midnight (hover to see other rain measurements)
** Current wind speed in m/s (hover to see current wind gust speed)